Weather History for KI75 - November, 2013

Change the Weather History Date:

Sunday, November 10, 2013

  Actual Average (KLWD) Record (KLWD)
Temperature  
Mean Temperature 39 °F 42 °F  
Max Temperature 51 °F 52 °F 73 °F (2012)
Min Temperature 27 °F 33 °F 16 °F (1979)
Degree Days  
Heating Degree Days 26 22  
Month to date heating degree days 203  
Since 1 July heating degree days 687  
Cooling Degree Days 0 0  
Month to date cooling degree days 0  
Year to date cooling degree days 946  
Moisture  
Dew Point 27 °F    
Average Humidity 61    
Maximum Humidity 87    
Minimum Humidity 36    
Precipitation  
Precipitation 0.00 in 0.08 in 1.05 in (1968)
Month to date precipitation 1.00  
Sea Level Pressure  
Sea Level Pressure 30.32 in    
Wind  
Wind Speed 7 mph (SSW)    
Max Wind Speed 12 mph    
Max Gust Speed 16 mph    
Visibility 10 miles    
Events      
T = Trace of Precipitation, MM = Missing Value Source: NWS Daily Summary

Daily Weather History Graph

Daily Weather History Graph

Search for Another Location

Airport or City:

Trip Planner

Search our weather history database for the weather conditions in past years. The results will help you decide how hot, cold, wet, or windy it might be!

Date:

Astronomy

Nov. 10, 2013 Rise Set
Actual Time 6:56 AM CST 5:00 PM CST
Civil Twilight 6:27 AM CST 5:29 PM CST
Nautical Twilight 5:54 AM CST 6:02 PM CST
Astronomical Twilight 5:22 AM CST 6:34 PM CST
Moon 1:09 PM CST (11/10) No Moon Set
Length of Visible Light 11h 01m
Length of Day
10h 03m
First Quarter, 56% of the Moon is Illuminated
Nov 10
First Quarter
Nov 17
Full
Nov 25
Last Quarter
Dec 2
New
Dec 9
First Quarter

Hourly Weather History & Observations

Time (CST) Temp. Windchill Dew Point Humidity Pressure Visibility Wind Dir Wind Speed Gust Speed Precip Events Conditions
12:15 AM 38.8 °F 32.6 °F 28.4 °F 66% 30.31 in 10.0 mi NW 9.2 mph - N/A   Clear
12:35 AM 38.3 °F 31.9 °F 28.0 °F 67% 30.31 in 10.0 mi NNW 9.2 mph 16.1 mph N/A   Clear
12:55 AM 37.9 °F 31.5 °F 27.3 °F 66% 30.32 in 10.0 mi NW 9.2 mph - N/A   Clear
1:15 AM 37.0 °F 31.0 °F 27.1 °F 67% 30.32 in 10.0 mi NW 8.1 mph - N/A   Clear
1:35 AM 36.1 °F 28.2 °F 27.3 °F 70% 30.33 in 10.0 mi NNW 11.5 mph - N/A   Clear
1:55 AM 35.8 °F 28.8 °F 27.1 °F 71% 30.33 in 10.0 mi NNW 9.2 mph - N/A   Clear
2:15 AM 35.6 °F 28.0 °F 27.0 °F 71% 30.33 in 10.0 mi NNW 10.4 mph - N/A   Clear
2:35 AM 34.5 °F 27.3 °F 27.1 °F 74% 30.34 in 10.0 mi North 9.2 mph - N/A   Clear
2:55 AM 33.3 °F 27.9 °F 26.6 °F 77% 30.34 in 10.0 mi NNW 5.8 mph - N/A   Clear
3:15 AM 32.7 °F 28.3 °F 26.2 °F 77% 30.35 in 10.0 mi NW 4.6 mph - N/A   Clear
3:35 AM 32.0 °F 25.6 °F 26.1 °F 79% 30.35 in 10.0 mi NNW 6.9 mph - N/A   Clear
3:55 AM 31.3 °F 25.6 °F 25.9 °F 80% 30.35 in 10.0 mi NW 5.8 mph - N/A   Clear
4:15 AM 31.3 °F 26.6 °F 25.9 °F 80% 30.36 in 10.0 mi WNW 4.6 mph - N/A   Clear
4:35 AM 30.0 °F 25.2 °F 25.3 °F 83% 30.36 in 10.0 mi West 4.6 mph - N/A   Clear
4:55 AM 28.4 °F 23.3 °F 24.8 °F 86% 30.37 in 10.0 mi WSW 4.6 mph - N/A   Clear
5:15 AM 28.2 °F 22.0 °F 24.4 °F 86% 30.38 in 10.0 mi West 5.8 mph - N/A   Clear
5:35 AM 28.4 °F 22.2 °F 24.6 °F 86% 30.38 in 10.0 mi West 5.8 mph - N/A   Clear
5:55 AM 27.0 °F 20.5 °F 23.5 °F 87% 30.39 in 10.0 mi West 5.8 mph - N/A   Clear
6:15 AM 27.7 °F 22.4 °F 23.9 °F 86% 30.40 in 10.0 mi West 4.6 mph - N/A   Clear
6:35 AM 28.0 °F 24.2 °F 23.7 °F 84% 30.40 in 10.0 mi West 3.5 mph - N/A   Clear
6:55 AM 28.9 °F 22.8 °F 24.3 °F 83% 30.40 in 10.0 mi West 5.8 mph - N/A   Clear
7:15 AM 27.0 °F 21.6 °F 23.0 °F 85% 30.41 in 10.0 mi West 4.6 mph - N/A   Clear
7:35 AM 28.4 °F - 24.6 °F 86% 30.41 in 10.0 mi Calm Calm - N/A   Clear
7:55 AM 30.9 °F - 26.6 °F 84% 30.41 in 10.0 mi Calm Calm - N/A   Clear
8:15 AM 32.0 °F 28.7 °F 26.6 °F 80% 30.42 in 10.0 mi West 3.5 mph - N/A   Clear
8:35 AM 32.9 °F 29.8 °F 27.3 °F 80% 30.42 in 10.0 mi NW 3.5 mph - N/A   Clear
8:55 AM 34.2 °F - 26.6 °F 74% 30.43 in 10.0 mi Calm Calm - N/A   Clear
9:15 AM 34.9 °F 30.8 °F 25.9 °F 70% 30.42 in 10.0 mi NE 4.6 mph - N/A   Clear
9:35 AM 36.9 °F 30.1 °F 26.8 °F 67% 30.41 in 10.0 mi NE 9.2 mph - N/A   Clear
9:55 AM 37.9 °F 32.7 °F 27.3 °F 66% 30.41 in 10.0 mi NE 6.9 mph - N/A   Clear
10:15 AM 38.7 °F 36.3 °F 27.1 °F 63% 30.41 in 10.0 mi NE 3.5 mph - N/A   Clear
10:35 AM 39.0 °F - 26.4 °F 61% 30.41 in 10.0 mi Calm Calm - N/A   Clear
10:55 AM 38.5 °F - 26.4 °F 62% 30.41 in 10.0 mi Calm Calm - N/A   Scattered Clouds
11:15 AM 39.2 °F - 26.6 °F 61% 30.41 in 10.0 mi Calm Calm - N/A   Overcast
11:35 AM 40.1 °F 36.9 °F 26.6 °F 59% 30.39 in 10.0 mi SE 4.6 mph - N/A   Overcast
11:55 AM 40.3 °F 37.1 °F 27.0 °F 59% 30.37 in 10.0 mi ESE 4.6 mph - N/A   Overcast
12:15 PM 41.0 °F 38.0 °F 27.3 °F 58% 30.37 in 10.0 mi SE 4.6 mph - N/A   Overcast
12:35 PM 42.6 °F 38.4 °F 27.5 °F 55% 30.35 in 10.0 mi South 6.9 mph - N/A   Overcast
12:55 PM 44.2 °F 41.0 °F 27.5 °F 52% 30.35 in 10.0 mi South 5.8 mph - N/A   Mostly Cloudy
1:15 PM 45.7 °F 43.4 °F 27.0 °F 48% 30.33 in 10.0 mi SSE 4.6 mph - N/A   Scattered Clouds
1:35 PM 46.4 °F 43.5 °F 26.1 °F 45% 30.33 in 7.0 mi SSE 5.8 mph - N/A   Clear
1:55 PM 48.2 °F - 26.6 °F 43% 30.32 in 10.0 mi SSE 6.9 mph - N/A   Clear
2:15 PM 49.3 °F - 26.6 °F 41% 30.31 in 7.0 mi South 6.9 mph - N/A   Clear
2:35 PM 49.8 °F - 27.1 °F 41% 30.30 in 7.0 mi South 5.8 mph - N/A   Clear
2:55 PM 50.7 °F - 25.0 °F 37% 30.29 in 7.0 mi South 8.1 mph - N/A   Clear
3:15 PM 51.1 °F - 25.3 °F 37% 30.29 in 7.0 mi South 8.1 mph - N/A   Clear
3:35 PM 50.7 °F - 24.3 °F 36% 30.28 in 7.0 mi South 10.4 mph - N/A   Clear
3:55 PM 50.4 °F - 25.2 °F 37% 30.27 in 7.0 mi South 9.2 mph - N/A   Clear
4:15 PM 49.5 °F - 26.4 °F 41% 30.26 in 10.0 mi South 9.2 mph - N/A   Clear
4:35 PM 47.3 °F - 27.0 °F 45% 30.27 in 7.0 mi SSW 4.6 mph - N/A   Clear
4:55 PM 45.0 °F 41.8 °F 25.5 °F 47% 30.27 in 7.0 mi South 5.8 mph - N/A   Clear
5:15 PM 43.7 °F 40.3 °F 25.7 °F 49% 30.26 in 10.0 mi South 5.8 mph - N/A   Scattered Clouds
5:35 PM 43.9 °F 41.3 °F 27.0 °F 51% 30.26 in 10.0 mi South 4.6 mph - N/A   Mostly Cloudy
5:55 PM 45.5 °F 44.2 °F 26.8 °F 48% 30.26 in 10.0 mi South 3.5 mph - N/A   Overcast
6:15 PM 45.7 °F 42.7 °F 27.3 °F 49% 30.25 in 10.0 mi South 5.8 mph - N/A   Overcast
6:35 PM 45.7 °F 42.0 °F 28.4 °F 51% 30.25 in 10.0 mi South 6.9 mph - N/A   Overcast
6:55 PM 45.9 °F 41.2 °F 28.4 °F 51% 30.23 in 10.0 mi SSE 9.2 mph - N/A   Overcast
7:15 PM 45.7 °F 42.0 °F 28.6 °F 51% 30.23 in 10.0 mi South 6.9 mph - N/A   Overcast
7:35 PM 46.2 °F 42.2 °F 28.8 °F 51% 30.23 in 10.0 mi South 8.1 mph - N/A   Overcast
7:55 PM 46.4 °F 42.4 °F 28.8 °F 50% 30.23 in 10.0 mi South 8.1 mph - N/A   Overcast
8:15 PM 46.6 °F - 28.9 °F 50% 30.22 in 10.0 mi South 6.9 mph - N/A   Overcast
8:35 PM 46.8 °F - 28.9 °F 50% 30.21 in 10.0 mi South 9.2 mph - N/A   Overcast
8:55 PM 46.8 °F - 29.5 °F 51% 30.21 in 10.0 mi SSW 8.1 mph - N/A   Overcast
9:15 PM 46.9 °F - 29.3 °F 50% 30.20 in 10.0 mi South 11.5 mph - N/A   Overcast
9:35 PM 47.3 °F - 29.1 °F 49% 30.20 in 10.0 mi South 11.5 mph - N/A   Overcast
9:55 PM 47.5 °F - 29.1 °F 49% 30.20 in 10.0 mi SSW 9.2 mph - N/A   Overcast
10:15 PM 47.3 °F - 29.5 °F 50% 30.19 in 10.0 mi South 11.5 mph - N/A   Overcast
10:35 PM 47.5 °F - 29.7 °F 50% 30.19 in 10.0 mi South 10.4 mph - N/A   Overcast
10:55 PM 47.5 °F - 30.0 °F 51% 30.19 in 10.0 mi South 9.2 mph - N/A   Overcast
11:15 PM 47.5 °F - 30.0 °F 51% 30.18 in 10.0 mi South 9.2 mph - N/A   Overcast
11:35 PM 47.3 °F - 30.4 °F 52% 30.18 in 10.0 mi South 8.1 mph - N/A   Overcast
11:55 PM 47.5 °F - 30.2 °F 51% 30.17 in 10.0 mi South 8.1 mph - N/A   Overcast